Tracking 35030 objects as of 11-Aug-2026
HD Live streaming from Space Station
objects crossing your sky now

GARAI-A

Track GARAI-A now!
10-day predictions
GARAI-A is classified as:


NORAD ID: 62635
Int'l Code: 2025-009AC
Launch date: January 14, 2025
Source: Spain (SPN)
Launch site: AIR FORCE WESTERN TEST RANGE (AFWTR)

Uplink (MHz):
Downlink (MHz): 2241.000
Beacon (MHz):
Mode: 400k BPSK
Call sign:
Status: Unknown

Your satellite tracking list
Your tracking list is empty




NASA's NSSDC Master Catalog

Two Line Element Set (TLE):
1 62635U 25009AC  26222.85097371  .00002947  00000-0  14612-3 0  9991
2 62635  97.3928 301.4422 0003910 120.9474 239.2145 15.18496846 87078
Source of the keplerian elements: AFSPC